Time,TemperatureF,DewpointF,PressureIn,WindDirection,WindDirectionDegrees,WindSpeedMPH,WindSpeedGustMPH,Humidity,HourlyPrecipIn,Conditions,Clouds,dailyrainin,SoftwareType,DateUTC
2013-09-10 00:04:00,70.0,63.0,30.10,SW,225,0.0,0.0,79,0.00,,,0.00,,2013-09-10 04:04:00,
2013-09-10 00:24:00,69.0,63.0,30.09,SW,225,0.0,0.0,81,0.00,,,0.00,,2013-09-10 04:24:00,
2013-09-10 00:53:00,69.0,63.0,30.10,SW,225,0.0,0.0,81,0.00,,,0.00,,2013-09-10 04:53:00,
2013-09-10 01:23:00,69.0,63.0,30.10,SW,225,0.0,0.0,82,0.00,,,0.00,,2013-09-10 05:23:00,
2013-09-10 01:53:00,69.0,64.0,30.10,SW,225,0.0,0.0,83,0.00,,,0.00,,2013-09-10 05:53:00,
2013-09-10 02:03:00,69.0,64.0,30.10,SW,225,0.0,0.0,83,0.00,,,0.00,,2013-09-10 06:03:00,
2013-09-10 02:12:00,69.0,64.0,30.10,SW,225,0.0,0.0,83,0.00,,,0.00,,2013-09-10 06:12:00,
2013-09-10 02:22:00,69.0,64.0,30.10,SW,225,0.0,0.0,84,0.00,,,0.00,,2013-09-10 06:22:00,
2013-09-10 02:43:00,68.0,63.0,30.10,SW,225,0.0,0.0,84,0.00,,,0.00,,2013-09-10 06:43:00,
2013-09-10 02:52:00,68.0,63.0,30.10,SW,225,0.0,0.0,84,0.00,,,0.00,,2013-09-10 06:52:00,
2013-09-10 03:12:00,68.0,63.0,30.10,SW,225,0.0,0.0,83,0.00,,,0.00,,2013-09-10 07:12:00,
2013-09-10 03:22:00,68.0,63.0,30.09,SW,225,0.0,0.0,84,0.00,,,0.00,,2013-09-10 07:22:00,
2013-09-10 03:42:00,68.0,63.0,30.10,SW,225,0.0,0.0,84,0.00,,,0.00,,2013-09-10 07:42:00,
2013-09-10 03:52:00,68.0,63.0,30.10,SW,225,0.0,0.0,84,0.00,,,0.00,,2013-09-10 07:52:00,
2013-09-10 04:12:00,68.0,63.0,30.10,SW,225,0.0,0.0,84,0.00,,,0.00,,2013-09-10 08:12:00,
2013-09-10 04:22:00,68.0,63.0,30.10,SSW,202,0.0,0.0,84,0.00,,,0.00,,2013-09-10 08:22:00,
2013-09-10 04:32:00,68.0,63.0,30.10,SSW,202,0.0,0.0,84,0.00,,,0.00,,2013-09-10 08:32:00,
2013-09-10 04:52:00,68.0,63.0,30.10,SW,225,0.0,0.0,84,0.00,,,0.00,,2013-09-10 08:52:00,
2013-09-10 05:12:00,68.0,63.0,30.11,SW,225,0.0,2.0,84,0.00,,,0.00,,2013-09-10 09:12:00,
2013-09-10 05:22:00,68.0,63.0,30.11,SW,225,0.0,0.0,84,0.00,,,0.00,,2013-09-10 09:22:00,
2013-09-10 05:43:00,68.0,63.0,30.11,SW,225,0.0,0.0,84,0.00,,,0.00,,2013-09-10 09:43:00,
2013-09-10 05:54:00,68.0,63.0,30.11,NE,42,0.0,0.0,84,0.00,,,0.00,,2013-09-10 09:54:00,
2013-09-10 06:03:00,68.0,63.0,30.11,NE,42,0.0,0.0,84,0.00,,,0.00,,2013-09-10 10:03:00,
2013-09-10 06:13:00,68.0,63.0,30.11,NE,42,0.0,0.0,84,0.00,,,0.00,,2013-09-10 10:13:00,
2013-09-10 06:23:00,68.0,63.0,30.13,SW,225,0.0,0.0,84,0.00,,,0.00,,2013-09-10 10:23:00,
2013-09-10 06:53:00,68.0,63.0,30.14,SW,225,0.0,0.0,84,0.00,,,0.00,,2013-09-10 10:53:00,
2013-09-10 07:12:00,68.0,63.0,30.15,SSW,202,1.0,3.0,85,0.00,,,0.00,,2013-09-10 11:12:00,
2013-09-10 07:22:00,68.0,63.0,30.15,SSW,202,2.0,14.0,85,0.00,,,0.00,,2013-09-10 11:22:00,
2013-09-10 07:42:00,69.0,64.0,30.15,SSW,196,1.0,6.0,84,0.00,,,0.00,,2013-09-10 11:42:00,
2013-09-10 07:52:00,69.0,64.0,30.15,SSW,194,1.0,5.0,84,0.00,,,0.00,,2013-09-10 11:52:00,
2013-09-10 08:12:00,70.0,65.0,30.15,SSW,202,1.0,5.0,83,0.00,,,0.00,,2013-09-10 12:12:00,
2013-09-10 08:22:00,70.0,64.0,30.15,SSW,202,0.0,0.0,82,0.00,,,0.00,,2013-09-10 12:22:00,
2013-09-10 08:42:00,70.0,64.0,30.15,SSW,202,0.0,0.0,82,0.00,,,0.00,,2013-09-10 12:42:00,
2013-09-10 08:52:00,70.0,64.0,30.15,SSW,202,0.0,0.0,82,0.00,,,0.00,,2013-09-10 12:52:00,
2013-09-10 09:11:00,70.0,65.0,30.15,SSW,202,1.0,3.0,83,0.00,,,0.00,,2013-09-10 13:11:00,
2013-09-10 09:21:00,71.0,66.0,30.15,SSW,207,0.0,3.0,83,0.00,,,0.00,,2013-09-10 13:21:00,
2013-09-10 09:42:00,71.0,65.0,30.16,SSW,202,0.0,0.0,82,0.00,,,0.00,,2013-09-10 13:42:00,
2013-09-10 09:52:00,72.0,66.0,30.17,SSW,202,0.0,0.0,82,0.00,,,0.00,,2013-09-10 13:52:00,
2013-09-10 10:11:00,72.0,66.0,30.17,SSW,204,1.0,3.0,82,0.00,,,0.00,,2013-09-10 14:11:00,
2013-09-10 10:22:00,72.0,66.0,30.18,SSW,202,1.0,5.0,81,0.00,,,0.00,,2013-09-10 14:22:00,
2013-09-10 10:52:00,73.0,66.0,30.19,SSW,202,0.0,0.0,80,0.00,,,0.00,,2013-09-10 14:52:00,
2013-09-10 11:12:00,73.0,66.0,30.19,SSW,202,0.0,0.0,80,0.00,,,0.00,,2013-09-10 15:12:00,
2013-09-10 11:22:00,74.0,67.0,30.18,SSW,202,0.0,0.0,80,0.00,,,0.00,,2013-09-10 15:22:00,
2013-09-10 11:43:00,74.0,67.0,30.18,SW,225,0.0,2.0,80,0.00,,,0.00,,2013-09-10 15:43:00,
2013-09-10 11:54:00,75.0,68.0,30.18,SSW,202,1.0,3.0,79,0.00,,,0.00,,2013-09-10 15:54:00,
2013-09-10 12:13:00,75.0,68.0,30.18,SSW,202,0.0,3.0,79,0.00,,,0.00,,2013-09-10 16:13:00,
2013-09-10 12:23:00,75.0,68.0,30.18,SSW,202,0.0,8.0,79,0.00,,,0.00,,2013-09-10 16:23:00,
2013-09-10 12:43:00,76.0,69.0,30.18,SSW,202,0.0,0.0,79,0.00,,,0.00,,2013-09-10 16:43:00,
2013-09-10 12:53:00,76.0,69.0,30.18,SSW,202,0.0,0.0,79,0.00,,,0.00,,2013-09-10 16:53:00,
2013-09-10 13:12:00,78.0,70.0,30.17,SW,225,0.0,6.0,76,0.00,,,0.00,,2013-09-10 17:12:00,
2013-09-10 13:23:00,79.0,71.0,30.17,WSW,238,1.0,9.0,76,0.00,,,0.00,,2013-09-10 17:23:00,
2013-09-10 13:52:00,80.0,71.0,30.17,SSW,209,2.0,7.0,74,0.00,,,0.00,,2013-09-10 17:52:00,
2013-09-10 14:12:00,81.0,72.0,30.17,SW,222,1.0,8.0,74,0.00,,,0.00,,2013-09-10 18:12:00,
2013-09-10 14:22:00,81.0,72.0,30.17,SSW,211,0.0,3.0,73,0.00,,,0.00,,2013-09-10 18:22:00,
2013-09-10 14:43:00,82.0,72.0,30.17,SSW,203,3.0,9.0,72,0.00,,,0.00,,2013-09-10 18:43:00,
2013-09-10 14:52:00,82.0,72.0,30.16,WSW,243,0.0,1.0,71,0.00,,,0.00,,2013-09-10 18:52:00,
2013-09-10 15:12:00,83.0,72.0,30.15,SSW,212,2.0,6.0,70,0.00,,,0.00,,2013-09-10 19:12:00,
2013-09-10 15:22:00,83.0,71.0,30.16,SW,236,0.0,1.0,68,0.00,,,0.00,,2013-09-10 19:22:00,
2013-09-10 15:42:00,83.0,71.0,30.15,SSW,198,2.0,7.0,68,0.00,,,0.00,,2013-09-10 19:42:00,
2013-09-10 15:52:00,83.0,71.0,30.14,SSW,209,3.0,10.0,68,0.00,,,0.00,,2013-09-10 19:52:00,
2013-09-10 16:12:00,83.0,71.0,30.14,WSW,243,1.0,3.0,68,0.00,,,0.00,,2013-09-10 20:12:00,
2013-09-10 16:22:00,83.0,71.0,30.14,SW,235,5.0,12.0,68,0.00,,,0.00,,2013-09-10 20:22:00,
2013-09-10 16:42:00,83.0,71.0,30.13,SSW,204,0.0,5.0,68,0.00,,,0.00,,2013-09-10 20:42:00,
2013-09-10 16:52:00,83.0,71.0,30.13,SSW,208,1.0,5.0,68,0.00,,,0.00,,2013-09-10 20:52:00,
2013-09-10 17:23:00,82.0,71.0,30.13,SW,225,0.0,0.0,69,0.00,,,0.00,,2013-09-10 21:23:00,
2013-09-10 17:44:00,82.0,71.0,30.13,SSW,211,3.0,8.0,69,0.00,,,0.00,,2013-09-10 21:44:00,
2013-09-10 17:54:00,82.0,71.0,30.13,South,180,0.0,0.0,70,0.00,,,0.00,,2013-09-10 21:54:00,
2013-09-10 18:14:00,82.0,71.0,30.13,SSW,202,0.0,5.0,70,0.00,,,0.00,,2013-09-10 22:14:00,
2013-09-10 18:24:00,82.0,71.0,30.13,South,189,0.0,2.0,70,0.00,,,0.00,,2013-09-10 22:24:00,
2013-09-10 18:42:00,81.0,71.0,30.13,SSW,202,0.0,1.0,71,0.00,,,0.00,,2013-09-10 22:42:00,
2013-09-10 18:54:00,81.0,71.0,30.14,South,183,0.0,0.0,71,0.00,,,0.00,,2013-09-10 22:54:00,
2013-09-10 19:13:00,81.0,71.0,30.13,SW,225,0.0,0.0,72,0.00,,,0.00,,2013-09-10 23:13:00,
2013-09-10 19:23:00,80.0,71.0,30.13,SW,225,0.0,0.0,73,0.00,,,0.00,,2013-09-10 23:23:00,
2013-09-10 19:53:00,80.0,71.0,30.13,SW,225,0.0,0.0,73,0.00,,,0.00,,2013-09-10 23:53:00,
2013-09-10 20:11:00,79.0,70.0,30.14,SW,225,0.0,0.0,74,0.00,,,0.00,,2013-09-11 00:11:00,
2013-09-10 20:22:00,79.0,70.0,30.14,SW,225,0.0,0.0,74,0.00,,,0.00,,2013-09-11 00:22:00,
2013-09-10 20:42:00,78.0,69.0,30.15,SW,225,0.0,0.0,75,0.00,,,0.00,,2013-09-11 00:42:00,
2013-09-10 20:52:00,78.0,69.0,30.15,SW,225,0.0,0.0,75,0.00,,,0.00,,2013-09-11 00:52:00,
2013-09-10 21:02:00,78.0,69.0,30.15,SW,225,0.0,0.0,75,0.00,,,0.00,,2013-09-11 01:02:00,
2013-09-10 21:11:00,78.0,69.0,30.15,SW,225,0.0,0.0,75,0.00,,,0.00,,2013-09-11 01:11:00,
2013-09-10 21:21:00,77.0,69.0,30.16,SW,225,0.0,0.0,77,0.00,,,0.00,,2013-09-11 01:21:00,
2013-09-10 21:42:00,76.0,68.0,30.17,SW,225,0.0,0.0,77,0.00,,,0.00,,2013-09-11 01:42:00,
2013-09-10 21:53:00,76.0,68.0,30.17,SW,225,0.0,0.0,77,0.00,,,0.00,,2013-09-11 01:53:00,
2013-09-10 22:22:00,76.0,69.0,30.17,SW,225,0.0,0.0,78,0.00,,,0.00,,2013-09-11 02:22:00,
2013-09-10 22:43:00,75.0,68.0,30.17,SW,225,0.0,0.0,78,0.00,,,0.00,,2013-09-11 02:43:00,
2013-09-10 22:52:00,75.0,68.0,30.18,SW,225,0.0,0.0,78,0.00,,,0.00,,2013-09-11 02:52:00,
2013-09-10 23:12:00,75.0,68.0,30.18,SW,225,0.0,0.0,78,0.00,,,0.00,,2013-09-11 03:12:00,
2013-09-10 23:23:00,74.0,67.0,30.19,SSW,205,0.0,0.0,79,0.00,,,0.00,,2013-09-11 03:23:00,
2013-09-10 23:45:00,74.0,67.0,30.18,SSW,202,0.0,0.0,80,0.00,,,0.00,,2013-09-11 03:45:00,
2013-09-10 23:55:00,74.0,67.0,30.19,SSW,202,0.0,0.0,80,0.00,,,0.00,,2013-09-11 03:55:00,